OBJECT C, 64627

Orbit data source: Space-Track

You're viewing an Uncataloged Satellite

Recently launched and/or uncataloged satellites may have evolving metadata. Metadata may include but not limited to: Owner, Maufacturer, Bus, Motor, and Mission.

OBJECT C, 64627 is a satellite owned by TsNIIKhM (CIS) in SSO that was launched on Mon, 01 Aug 2022 UTC via a SOYUZ-2-1V launch vehicle from the Plesetsk Missile And Space Complex (PKMTR). Unknown objects in Earth's orbit typically refer to objects detected orbiting the Earth but have not yet been identified or cataloged. These objects could be anything from previously untracked satellites, spent rocket stages, debris from satellite collisions, or even natural meteoroids temporarily captured by Earth's gravity.

Loading next visibility...
Identifier
64627, 2022-089C
Orbit
SSO
Country
Flag of CISCIS
Related business
Manufacturer
TsNIIKhM
Mission
Defense Technology
Bus & Motor
NIVELIR, Unknown motor
Mass
~100 kg wet, ~100 kg dry
Launch date (UTC)
2022-08-01 (4 years ago)
Launch vehicle
SOYUZ-2-1V
Launch site
Plesetsk Missile And Space Complex (PKMTR)
Object type
Unknown
Shape & HBR
Hex Cyl + 1 Ant, 1.1 m
Radar Cross Section
0.352 m², Medium (>0.1 m² and < 1m²)

Expand to show TLE details & history
Last TLE update: 17 hours ago

TLE from 17 hours ago
0 OBJECT C
1 64627U 22089C   26174.69220722  .00007071  00000-0  20430-3 0  9993
2 64627  97.2305 270.3658 0011839 173.6277 186.5120 15.35886819 55624
Epoch: 2026-06-23T16:36Z
TLE epoch observation values (Epoch: 2026-06-23T16:36:46.703Z)
Latitude
-0.00005°
Longitude
109.31108°
Altitude
469.448 km
Speed
7.627 km/s
True Right ascension
18h 01m 27s
True Declination
0° 00' 00"
Sunlit
Object was in full shadow at epoch
Visualization orbit readout
Latitude
Unknown
Longitude
Unknown
Altitude
Unknown
Speed
Unknown
Apparent Right ascension
Unknown
Apparent Declination
Unknown
Sunlit
N/A
Visualization observer readout
Local Sidereal Time
20:47:56
Azimuth
Unknown
Elevation
Unknown
Doppler factor
Unknown
Orbital elements
Apogee altitude
463.315 km
Perigee altitude
447.135 km
Semi-major axis
6,833.362 km
Eccentricity
0.00118
Inclination
97.2305°
RAAN
270.3658°
Arg. of periapsis
173.6277°
True anomaly
186.49664°
Mean anomaly
186.512°
Eccentric anomaly
186.50432°
Mean motion
3.8423 °/min
Orbital period
93.69 mins
BSTAR
0.0002043
Loading maneuver chart data...
Computing Atmospheric mass density...
Loading historical data...
Loading historical data...
Loading historical data...
Loading historical data...
Loading historical data...
Loading historical data...
Loading historical data...
Other satellites on launch #89 in the year 2022 (2022-08-01 UTC)

Documentation

Showing up to 5 results
|